Ontario International Airport
KONT : now visible

Airfield :











YOU CAN JOIN US ON...

 
LOGIN :

Register | Disclaimer

   EN    FR    IT 

 









Legend :    VFR   Marginal VFR   IFR   Intensive IFR   Very Intensive IFR
Visi :
Ceiling :
>= 8 km
>= 3000ft
5 to 8 km
1000 to 3000 ft
1500m to 5 km
500 to 1000 ft
800 to 1500m
200 to 500 ft
< 800m
< 200 ft
Symbols :   Thunderstorms  Fog  Heavy snow  Heavy precipitations  Wind > 20 kt






- Airport Elevation : 944 ft
- IATA code : ONT


KONT - Ontario International

CURRENT METAR :
  • 182053Z 04017G32KT 10SM CLR 29/M12 A2999 RMK AO2 PK WND 04033/1955 SLP143 T02941122 57013

EXPIRED METARs :
  • 181953Z 03019G28KT 10SM CLR 28/M11 A3000 RMK AO2 PK WND 04031/1920 SLP147 T02831106
  • 181853Z 05020G28KT 10SM CLR 27/M09 A3002 RMK AO2 PK WND 04036/1828 SLP152 T02721094

TAF KONT
Valid from the 18 at 18:00 until the 20 at 00:00 UTC


181722Z 1818/1924 04020G30KT P6SM SKC
FM182300 04012G20KT P6SM SKC
FM190300 VRB04KT P6SM SKC
FM192100 26013G20KT P6SM SKC
KZLA FIR / North America



MET'MAP, your aeronautical weather chart ! - Copyright ORBIFLY December 2007 - Disclaimer

ORBIFLY MET'MAP TEAM :

Programming & Development : Alexandra Zaïnal
Concept & original design : Baudouin d'Aumeries
Assistance for programming : Marc-Olivier Méhu
Technical & hardware support : Manuel Goepfert

Contact : metmap@orbifly.com




SOURCES & CREDITS :

   NOAA       Earth
Advisory